Flight Information

DEPARTURE
AMARILLO, TX
Elevation:
3606
Runways:
4/22 - 13502x200 - CONC-G
13/31 - 7901x150 - CONC-G
ATIS:
118.85
Clearance Delivery:
121.65
Ground:
121.9
Tower:
AMARILLO TOWER 118.3
DESTINATION
,
Elevation:
TPA:
1000 (est.)


5972.2 NM83° True-9° Var73° HDG

Flight Plan:
(click to file on line)

1. Type
2. Aircraft Identification
3. Aircraft Type / Special Equipment
4. True Airspeed
kts
5. Departure Airport
(ICAO code)
6. Arriving Airport
(ICAO code)
7. Cruising Altitude
ft
8. Alternate Airport
(ICAO code)
9. Route of Flight
10. Remarks


00:00:00 Departure ATIS: Destination ATIS:

Clearance Limit:
Route:
Altitude: Expect in minutes
Frequency:
Transponder: (7500 Hijack / 7600 Lost Comms / 7700 Emergency)


KAMA 281153Z 34012KT 10SM BKN100 11/M01 A3031 RMK AO2 SLP235 T01111006 10128 20111 53019
Time: 2020-09-28T11:53:00Z
1601296870
Winds: 340 @ 12 kts
Visibility: 10.0 sm
Clouds (AGL): BKN 10000
Temperature: 11.1 C
Dew Point: -0.6 C
Pressure: 30.31004 in Hgbr


Notes:

Data extracted from FAA Digital Chart Supplement. Effective: 0901Z Thursday, Sep 10, 2020 to 0901Z Thursday, Nov 5, 2020
Current ATIS data is provided courtisy of PilotEdge.